Location: Observatoire
(46.1952°N, 5.3391°E)
Time: 01:47:01
(UTC+01:00)

Tiangong - Visible Passes

Search period start: 22 January 2026 00:00
Search period end: 01 February 2026 00:00
Orbit: 378 x 392 km, 41.5° (Epoch: 21 January)

Date Brightness Start Highest point End Pass type
(mag) Time Alt. Az. Time Alt. Az. Time Alt. Az.
22 Jan 0.9 05:31:09 15° ESE 05:31:09 15° ESE 05:31:59 10° ESE visible
22 Jan -0.8 07:03:22 13° WSW 07:05:55 34° S 07:08:52 10° ESE visible
23 Jan -0.7 06:06:42 31° SSE 06:06:42 31° SSE 06:09:22 10° ESE visible
24 Jan -0.9 06:42:08 23° SW 06:43:27 33° S 06:46:22 10° ESE visible
25 Jan 0.2 05:45:16 22° SE 05:45:16 22° SE 05:46:48 10° ESE visible
25 Jan -0.4 07:17:41 10° WSW 07:20:18 24° SSW 07:22:56 10° SE visible
26 Jan -0.8 06:20:33 29° SSW 06:20:42 29° S 06:23:31 10° SE visible
27 Jan 1.1 05:23:34 12° ESE 05:23:34 12° ESE 05:23:54 10° ESE visible
27 Jan 0.0 06:55:46 13° WSW 06:57:21 18° SSW 06:59:35 10° SSE visible
28 Jan 0.1 05:58:46 19° SSE 05:58:46 19° SSE 06:00:16 10° SE visible
29 Jan 0.3 06:33:56 12° SSW 06:34:07 12° SSW 06:35:28 10° S visible
